[[{"header":{"parameterUnit":"m.s-1","parameterCategory":1,"la1":30.2991,"la2":30.254,"lo1":-89.0895,"lo2":-89.0444,"dx":0.0017,"dy":0.0017,"nx":28,"ny":28,"refTime":"2022-11-16T09:00:00:Z","depth":0,"parameterNumber":2,"parameterNumberName":"U-component_of_WINDS"},"data":[0,0,0,0,0,0,0,0,0,0,0,0,0,0,0,0,0,0,0,0,0,0,0,0,0,0,0,0,0,0,0,0,0,0,0,0,0,0,0,0,0,0,0,0,0,0,0,0,0,0,0,0,0,0,0,0,0,0,0.3925,0.3924,0,0.388,0.3879,0.3879,0.3905,0.3906,0.3908,0.3909,0.3859,0.3857,0.3854,0,0,0,0,0,0,0,0,0,0,0,0,0,0.4031,0.4029,0.3925,0.3924,0.3924,0.388,0.3879,0.3878,0.3905,0.3906,0.3908,0.3909,0.386,0.3857,0.3854,0,0,0,0,0,0,0,0,0,0,0,0,0,0.3985,0.4029,0.3925,0.3932,0.3932,0.388,0.3879,0.3878,0.3905,0.3906,0.3908,0.391,0.3861,0.3857,0.3853,0.3791,0,0,0.3842,0.384,0,0,0,0,0,0,0,0,0.3988,0.3981,0.3931,0.3931,0.3931,0.39,0.3898,0.3849,0.3904,0.3915,0.3909,0.3911,0.3871,0.3866,0.3854,0.3789,0.3787,0.3841,0.3839,0.3838,0.3836,0,0,0,0,0,0,0,0.3991,0.3983,0.3907,0.393,0.393,0.3936,0.3932,0.3889,0.3882,0.3914,0.3916,0.391,0.3871,0.3857,0.3853,0.3786,0.3842,0.3838,0.3836,0.3834,0.3667,0.3665,0,0,0,0,0,0,0.3994,0.3986,0.3908,0.3905,0.3965,0.3933,0.3928,0.3908,0.3883,0.3881,0.3909,0.3912,0.3863,0.3857,0.3851,0.3775,0.3838,0.3834,0.3832,0.3669,0.3667,0.3664,0,0,0,0,0,0,0.3996,0.3987,0.391,0.3946,0.3937,0.3929,0.3906,0.3906,0.3892,0.3879,0.3878,0.3896,0.3864,0.3856,0.3806,0.3774,0.3832,0.3829,0.3672,0.3669,0.3666,0.3624,0,0,0,0,0,0,0.3999,0.3988,0.3964,0.3946,0.3935,0.3866,0.3904,0.3904,0.3886,0.3889,0.3866,0.3864,0.3865,0.3811,0.3802,0.377,0.3826,0.3675,0.367,0.3667,0.3628,0.3619,0.3612,0,0,0,0,0,0.4003,0.3954,0.3963,0.3953,0.3906,0.3864,0.3858,0.3861,0.3883,0.3859,0.3851,0.3865,0.378,0.3806,0.3796,0.3762,0.3677,0.3672,0.3667,0.3631,0.3621,0.3612,0,0,0,0,0,0,0.3967,0.3951,0.3961,0.3905,0.3886,0.3869,0.3838,0.385,0.3823,0.3827,0.3831,0.3826,0.3773,0.3763,0.3793,0.37,0.3731,0.3724,0.3708,0.3698,0.369,0.3692,0.3823,0,0,0,0,0,0.3953,0.3922,0.3909,0.386,0.3851,0.3846,0.3828,0.3832,0.3812,0.3804,0.3792,0.3772,0.374,0.3719,0.3689,0.3628,0.3622,0.3599,0.3591,0.3585,0.3578,0.3543,0.3532,0.3649,0.3649,0.3649,0,0,0.3922,0.391,0.389,0.3853,0.3839,0.3805,0.3839,0.3802,0.3777,0.3798,0.3749,0.3741,0.3718,0.3661,0.3636,0.3651,0.3545,0.3579,0.3574,0.357,0.3537,0.3526,0.3516,0.3645,0.3646,0.3646,0,0,0.3849,0.3838,0.3795,0.3781,0.3759,0.3757,0.3747,0.3729,0.3724,0.3676,0.3691,0.3661,0.3607,0.359,0.3574,0.3497,0.3508,0.3487,0.3445,0.3411,0.3402,0.3394,0.3364,0.3354,0.3481,0.3481,0.3481,0,0.3813,0.3764,0.3771,0.3733,0.3716,0.3736,0.3692,0.3678,0.3647,0.3635,0.3653,0.3586,0.3572,0.3511,0.3492,0.348,0.3467,0.3488,0.3403,0.3395,0.3387,0.3359,0.3348,0.3478,0.3478,0.3479,0.3479,0,0.372,0.3686,0.3654,0.3626,0.3605,0.3565,0.3565,0.3543,0.355,0.3545,0.3496,0.3481,0.3448,0.3435,0.344,0.3374,0.3385,0.3403,0.3434,0.3374,0.3347,0.3336,0.3474,0.3475,0.3476,0.3477,0,0,0.3619,0.3597,0.3585,0.3572,0.3551,0.3524,0.3485,0.3454,0.3435,0.3415,0.338,0.3335,0.3352,0.3334,0.3339,0.331,0.3247,0.3332,0.3331,0.3314,0.3172,0.3156,0.3143,0.3256,0.3254,0.3253,0.3173,0,0.3543,0.3474,0.348,0.3415,0.3382,0.3402,0.3368,0.3351,0.3346,0.3318,0.3313,0.328,0.3307,0.3296,0.3268,0.3261,0.3218,0.3267,0.3222,0.322,0.3224,0.313,0.3112,0.3037,0.3163,0.3161,0.316,0,0.3443,0.342,0.3352,0.3336,0.3323,0.3292,0.3264,0.3238,0.3219,0.3218,0.3199,0.3208,0.3168,0.3203,0.3146,0.3179,0.3162,0.3155,0.3153,0.3146,0.3184,0.3117,0.3014,0.3002,0.3144,0.3145,0.3146,0,0.3374,0.3326,0.3278,0.3267,0.3248,0.3226,0.3217,0.32,0.3182,0.3158,0.3146,0.3117,0.3101,0.3078,0.308,0.3106,0.3021,0.3057,0.3017,0.3017,0.2996,0.2996,0.2885,0.299,0.299,0.299,0.299,0,0.3286,0.3242,0.3247,0.3217,0.3169,0.3177,0.3129,0.3123,0.3108,0.3077,0.3094,0.3064,0.3069,0.3039,0.304,0.2992,0.2985,0.2982,0.2982,0.2978,0.2978,0.2965,0.2969,0.2987,0.2988,0.2988,0.2989,0,0.3198,0.32,0.3149,0.3136,0.3132,0.3097,0.3086,0.3057,0.3056,0.3016,0.3007,0.3004,0.297,0.297,0.2931,0.2932,0.2872,0.288,0.2878,0.2878,0.2838,0.284,0.2711,0.2693,0.2812,0.2811,0.281,0,0.314,0.3107,0.3091,0.3072,0.3062,0.3031,0.3013,0.302,0.3,0.2977,0.2951,0.2919,0.2893,0.2838,0.2831,0.2801,0.2806,0.2763,0.2802,0.2799,0.2802,0.2803,0.2799,0.2754,0.2753,0.2752,0.2751,0,0.3036,0.3039,0.3012,0.2985,0.2963,0.2942,0.2923,0.2907,0.2912,0.2889,0.2855,0.2835,0.2796,0.2763,0.2735,0.2725,0.2737,0.274,0.2729,0.2723,0.2722,0.2719,0.2854,0.2742,0.2743,0.2743,0.2744,0.2744,0.2959,0.2931,0.2915,0.2885,0.2872,0.2854,0.2827,0.2822,0.2795,0.2764,0.277,0.2731,0.2715,0.2678,0.2666,0.2635,0.265,0.2634,0.263,0.2625,0.2619,0.273,0.263,0.2631,0.2631,0.2631,0.2631,0,0.2853,0.2845,0.2818,0.2791,0.2767,0.2785,0.2765,0.2743,0.2709,0.2693,0.2668,0.2629,0.2597,0.259,0.2559,0.2536,0.2541,0.2528,0.2528,0.2525,0.2609,0.262,0.2524,0.2524,0.2524,0.2524,0.2524,0.2524,0.2795,0.2748,0.2749,0.2695,0.2687,0.265,0.2637,0.2621,0.2608,0.2563,0.2538,0.2534,0.2521,0.249,0.2462,0.246,0.2447,0.243,0.2431,0.2508,0.2519,0.2529,0.254,0.2428,0.2428,0.2349,0.2348,0.2348]},{"header":{"parameterUnit":"m.s-1","parameterCategory":1,"la1":30.2991,"la2":30.254,"lo1":-89.0895,"lo2":-89.0444,"dx":0.0017,"dy":0.0017,"nx":28,"ny":28,"refTime":"2022-11-16T09:00:00:Z","depth":0,"parameterNumber":3,"parameterNumberName":"V-component_of_WINDS"},"data":[0,0,0,0,0,0,0,0,0,0,0,0,0,0,0,0,0,0,0,0,0,0,0,0,0,0,0,0,0,0,0,0,0,0,0,0,0,0,0,0,0,0,0,0,0,0,0,0,0,0,0,0,0,0,0,0,0,0,-7.0949,-7.0951,0,-7.1138,-7.114,-7.1142,-7.1052,-7.1047,-7.1042,-7.1038,-7.1226,-7.1235,-7.1245,0,0,0,0,0,0,0,0,0,0,0,0,0,-7.0505,-7.0514,-7.0949,-7.0951,-7.0954,-7.1138,-7.114,-7.1143,-7.1053,-7.1047,-7.1041,-7.1036,-7.1223,-7.1234,-7.1246,0,0,0,0,0,0,0,0,0,0,0,0,0,-7.0696,-7.0516,-7.0949,-7.0931,-7.0932,-7.1137,-7.114,-7.1144,-7.1054,-7.1047,-7.104,-7.1033,-7.1219,-7.1233,-7.1247,-7.1479,0,0,-7.1291,-7.1297,0,0,0,0,0,0,0,0,-7.0685,-7.0713,-7.0931,-7.0933,-7.0934,-7.1064,-7.1053,-7.1256,-7.1056,-7.1008,-7.1038,-7.1029,-7.1178,-7.1195,-7.1246,-7.1488,-7.1496,-7.1292,-7.1301,-7.1307,-7.1311,0,0,0,0,0,0,0,-7.0672,-7.0704,-7.1024,-7.0935,-7.0936,-7.0912,-7.0931,-7.1091,-7.1131,-7.1011,-7.1005,-7.1029,-7.1177,-7.1233,-7.125,-7.1499,-7.1292,-7.1304,-7.1313,-7.1319,-7.1941,-7.1948,0,0,0,0,0,0,-7.066,-7.0693,-7.1018,-7.1029,-7.0789,-7.0926,-7.0947,-7.1029,-7.1129,-7.1137,-7.1035,-7.1024,-7.1212,-7.1233,-7.1256,-7.1535,-7.1307,-7.132,-7.1328,-7.1933,-7.1942,-7.1951,0,0,0,0,0,0,-7.0651,-7.069,-7.101,-7.086,-7.0899,-7.0941,-7.1034,-7.1037,-7.1093,-7.1147,-7.1153,-7.1085,-7.1207,-7.1236,-7.1425,-7.154,-7.1326,-7.1339,-7.1923,-7.1936,-7.1947,-7.2094,0,0,0,0,0,0,-7.0639,-7.0687,-7.0778,-7.0863,-7.0907,-7.1178,-7.1041,-7.1046,-7.1118,-7.1106,-7.1195,-7.1203,-7.1204,-7.1404,-7.1439,-7.1556,-7.135,-7.1913,-7.1929,-7.1943,-7.2079,-7.211,-7.2136,0,0,0,0,0,-7.0623,-7.081,-7.0783,-7.0822,-7.1021,-7.1185,-7.121,-7.1208,-7.1128,-7.1218,-7.1252,-7.12,-7.1522,-7.1424,-7.1463,-7.1586,-7.1906,-7.1924,-7.1942,-7.2067,-7.2104,-7.2135,0,0,0,0,0,0,-7.0736,-7.0821,-7.0791,-7.1012,-7.1092,-7.1169,-7.1283,-7.1248,-7.1351,-7.1335,-7.1326,-7.1347,-7.1543,-7.1583,-7.1473,-7.1815,-7.1701,-7.1728,-7.1783,-7.1819,-7.1846,-7.1833,-7.1362,0,0,0,0,0,-7.0787,-7.0915,-7.0981,-7.1169,-7.1211,-7.1241,-7.1312,-7.1304,-7.1385,-7.1418,-7.1466,-7.1546,-7.1665,-7.1744,-7.1856,-7.2084,-7.2102,-7.2187,-7.2215,-7.2238,-7.2262,-7.2385,-7.2424,-7.201,-7.201,-7.2009,0,0,-7.0893,-7.0955,-7.1036,-7.1194,-7.1255,-7.1386,-7.127,-7.1413,-7.1509,-7.1439,-7.1622,-7.166,-7.1748,-7.1958,-7.2052,-7.1996,-7.238,-7.2261,-7.2279,-7.229,-7.2407,-7.2446,-7.2481,-7.2022,-7.202,-7.2018,0,0,-7.1153,-7.1213,-7.1377,-7.1441,-7.1535,-7.1553,-7.1592,-7.1675,-7.1699,-7.1882,-7.1832,-7.1945,-7.215,-7.2215,-7.2275,-7.256,-7.2515,-7.2596,-7.2744,-7.2864,-7.2897,-7.2926,-7.3028,-7.3064,-7.2619,-7.2619,-7.2619,0,-7.1272,-7.147,-7.1465,-7.1613,-7.1683,-7.1627,-7.1792,-7.1853,-7.1979,-7.2028,-7.1964,-7.2221,-7.2276,-7.25,-7.257,-7.262,-7.2663,-7.2586,-7.2893,-7.2922,-7.2949,-7.3046,-7.3084,-7.2628,-7.2627,-7.2626,-7.2625,0,-7.1612,-7.1749,-7.1869,-7.1994,-7.2078,-7.2234,-7.2251,-7.2336,-7.232,-7.2344,-7.253,-7.2595,-7.2719,-7.2771,-7.2757,-7.2994,-7.2956,-7.2893,-7.2778,-7.2998,-7.3088,-7.3125,-7.2642,-7.2638,-7.2635,-7.2633,0,0,-7.195,-7.207,-7.2114,-7.217,-7.227,-7.2375,-7.2527,-7.2651,-7.2724,-7.2811,-7.2938,-7.3113,-7.3055,-7.3123,-7.3115,-7.322,-7.3442,-7.3144,-7.3146,-7.3198,-7.3707,-7.3755,-7.3798,-7.3412,-7.3419,-7.3425,-7.37,0,-7.2217,-7.2487,-7.2486,-7.2734,-7.286,-7.2808,-7.294,-7.3015,-7.3042,-7.3151,-7.3178,-7.3303,-7.3217,-7.3258,-7.336,-7.3394,-7.3544,-7.3373,-7.353,-7.3535,-7.3511,-7.3845,-7.3897,-7.4153,-7.3735,-7.3741,-7.3745,0,-7.2567,-7.2668,-7.2929,-7.301,-7.3063,-7.3183,-7.3296,-7.3401,-7.3484,-7.3495,-7.3572,-7.3547,-7.37,-7.358,-7.379,-7.3674,-7.3737,-7.3763,-7.3773,-7.3789,-7.3655,-7.3871,-7.4234,-7.4273,-7.3801,-7.3797,-7.3793,0,-7.2788,-7.2989,-7.3172,-7.3221,-7.332,-7.3405,-7.345,-7.3526,-7.36,-7.3698,-7.3745,-7.3859,-7.3922,-7.4009,-7.4015,-7.3927,-7.4227,-7.4107,-7.424,-7.424,-7.4307,-7.4303,-7.4687,-7.4346,-7.4346,-7.4345,-7.4344,0,-7.3088,-7.325,-7.3273,-7.3385,-7.3564,-7.3561,-7.3738,-7.3775,-7.3842,-7.396,-7.392,-7.403,-7.4031,-7.4143,-7.4148,-7.4321,-7.4349,-7.4362,-7.4362,-7.4367,-7.4365,-7.4409,-7.4392,-7.4355,-7.4353,-7.4351,-7.4349,0,-7.3367,-7.3388,-7.3584,-7.3662,-7.3685,-7.3814,-7.3879,-7.3985,-7.4008,-7.4156,-7.4191,-7.4226,-7.4356,-7.437,-7.452,-7.4523,-7.4733,-7.4713,-7.4706,-7.4703,-7.4836,-7.4823,-7.5262,-7.532,-7.4941,-7.4944,-7.4947,0,-7.3557,-7.3681,-7.3773,-7.3849,-7.3899,-7.4023,-7.4099,-7.41,-7.418,-7.4283,-7.4377,-7.4503,-7.4604,-7.4813,-7.4851,-7.4965,-7.4948,-7.5094,-7.4965,-7.4966,-7.4952,-7.4945,-7.4957,-7.512,-7.5124,-7.5127,-7.513,0,-7.3894,-7.3899,-7.4011,-7.4127,-7.4219,-7.431,-7.4395,-7.4459,-7.447,-7.4562,-7.4696,-7.4774,-7.4929,-7.5054,-7.5167,-7.521,-7.5173,-7.517,-7.5207,-7.5214,-7.5205,-7.5213,-7.4775,-7.516,-7.5157,-7.5155,-7.5153,-7.5152,-7.4135,-7.4243,-7.4324,-7.445,-7.4514,-7.4595,-7.4699,-7.4734,-7.4846,-7.4974,-7.4966,-7.5113,-7.5191,-7.5339,-7.5391,-7.5505,-7.5456,-7.5509,-7.5523,-7.5537,-7.5551,-7.5186,-7.5525,-7.5524,-7.5523,-7.5522,-7.5522,0,-7.4471,-7.452,-7.4636,-7.4758,-7.4856,-7.4813,-7.4904,-7.4989,-7.512,-7.5197,-7.5298,-7.545,-7.5572,-7.5619,-7.5737,-7.5819,-7.5804,-7.585,-7.5844,-7.5855,-7.5587,-7.5544,-7.586,-7.586,-7.586,-7.586,-7.5859,-7.5859,-7.4657,-7.4837,-7.4851,-7.5061,-7.5109,-7.5255,-7.5311,-7.5384,-7.5446,-7.5619,-7.572,-7.575,-7.5815,-7.5938,-7.6046,-7.6057,-7.6102,-7.6156,-7.6159,-7.5908,-7.5874,-7.5841,-7.5801,-7.6166,-7.6166,-7.6418,-7.642,-7.6422]}]]